{"data":{"norad_id":45538,"intl_designator":"2020-025H","name":"STARLINK-1362","alt_names":[],"object_type":"PAYLOAD","status":"ACTIVE","operator":null,"country":"US","launch_date":"2020-04-22","launch_site_code":"AFETR","launch_vehicle":null,"mission":null,"orbit_class":"UNKNOWN","rcs_meters":null,"size_class":null,"mass_kg":null,"dimensions":null,"purposes":["comms"],"wikipedia_slug":null,"has_3d_model":false,"image_url":null,"decayed_at":null,"tle_current":{"epoch":"2026-09-19T15:28:13.323360Z","epoch_age_seconds":89093,"freshness":"FRESH","line1":"1 45538U 20025H   26262.64459865  .00028997  00000+0  58976-3 0  9991","line2":"2 45538  53.1524 269.4330 0002915  54.2291 305.8987 15.46081520355021","mean_motion":15.4608152,"eccentricity":0.0002915,"inclination_deg":53.1524,"raan_deg":269.433,"arg_perigee_deg":54.2291,"mean_anomaly_deg":305.8987,"bstar":0.00058976,"rev_number":35502,"period_min":93.13868520982,"perigee_km":426.21804444802,"apogee_km":430.18614013882,"semimajor_km":6806.3390922934,"source":"CELESTRAK","updated_at":"2026-09-20T09:00:38.445830Z"}}}